Regional Weather Roundup
Issued by NWS Newport/Morehead, NC

Current Version | Previous Version | Graphics & Text | Print | Product List | Glossary Off
Versions: 1 2 3 4 5 6 7 8 9 10 11 12 13 14 15 16 17 18 19 20 21 22 23 24 25 26 27 28 29 30 31 32 33 34 35 36 37 38 39 40 41 42 43 44 45 46 47 48 49 50
000 ASUS42 KMHX 220522 RWRMHX WEATHER ROUNDUP FOR EASTERN NORTH CAROLINA NATIONAL WEATHER SERVICE NEWPORT/MOREHEAD CITY NC 1200 AM EST MON DEC 22 2014 NOTE: "FAIR" INDICATES FEW OR NO CLOUDS BELOW 12,000 FEET WITH NO SIGNIFICANT WEATHER AND/OR OBSTRUCTIONS TO VISIBILITY NCZ015>017-031-032-045>047-102-103-220600- NORTH COAST CITY SKY/WX TMP DP RH WIND PRES REMARKS EDENTON N/A 41 36 82 NE6 30.24S ELIZABETH CITY CLOUDY 44 36 73 N6 30.25F KITTY HAWK CLOUDY 47 42 82 NE8 30.22S MANTEO CLOUDY 47 42 82 NE14 30.23S $$ NCZ045>047-081-094-103-104-220600- CENTRAL COAST CITY SKY/WX TMP DP RH WIND PRES REMARKS FRISCO LGT RAIN 48 47 96 NE7 30.18F SWANQUARTER N/A 45 N/A N/A N8G18 30.15F $$ NCZ095-097-098-100-101-220600- SOUTHERN COAST CITY SKY/WX TMP DP RH WIND PRES REMARKS BEAUFORT RAIN 45 44 97 NE10G18 30.17F FOG CEDAR ISLAND N/A 46 N/A N/A N15G23 30.21S JACKSONVILLE LGT RAIN 43 41 93 NE12 30.17F FOG PINEY ISLAND LGT RAIN 48 N/A N/A MISG 30.18F WILMINGTON CLOUDY 44 42 93 NE10 30.15F $$ NCZ011>013-027>030-043-044-078>080-089-090>093-098-220600- COASTAL PLAIN CITY SKY/WX TMP DP RH WIND PRES REMARKS AHOSKIE CLOUDY 37 31 79 N6 30.27S CLINTON CLOUDY 43 40 88 NE5 30.18F ELIZABETHTOWN DRIZZLE 42 42 98 CALM 30.15F GOLDSBORO MIX PCPN 43 41 93 NE8 30.18F GREENVILLE CLOUDY 41 34 75 NE8 30.23F HAVELOCK LGT RAIN 44 41 89 NE13 30.19F FOG KENANSVILLE CLOUDY 41 40 97 NE3 30.18F FOG KINSTON LGT RAIN 42 37 83 NE10 30.20F NEW BERN LGT RAIN 44 40 85 N6 30.21F RICHLANDS CLOUDY 41 37 87 NE14 30.17F ROCKY MOUNT CLOUDY 41 33 73 NE7 30.23F WASHINGTON FLURRIES 41 36 81 NE6 30.23F WHITEVILLE DRIZZLE 43 41 93 NE3 30.14F $$ AMZ130-135-150-152-154-156-158-170-250-252-270-ANZ085-086-088-633-658-670-220600- MARINE OBSERVATIONS STATION/POSITION TIME TEMP WIND PRES WAVE SWELL AIR SEA DIR/SP/G HT/PER HT/PER (UTC) (F) (DEG/KT/KT) (MB) (FT/S) (FT/S) CHESAPEAKE LIGHT 0500 44 60/ 15/ 16 1025.8 64 E VA BEACH 0500 49 55 40/ 16/ 19 1023.7 3/10 2/10 DUCK 0500 47 46 40/ 19/ 21 1023.0 2 E DUCK 0500 46 N/A 3/ 5 10 NE DUCK 0500 50 N/A 4/ 4 OREGON INLET 0500 48 48 20/ 13/ 17 1022.7 13E OREGON INLT 0500 52 N/A 4/ 5 HATTERAS CG 0500 48 49 20/ 10/ 13 1022.1 DIAMOND BUOY 0500 62 1021.2 5/ 5 17 S OCRACOKE NOT AVBL CAPE LOOKOUT 0500 47 20/ 16/ 20 1021.0 BEAUFORT LAB 0500 45 51 10/ 11/ 15 1020.6 30 SE NEW RIVER 0500 52 60 40/ 21/ 23 1020.6 6/ 6 5 SE WRIGHTSVLE NOT AVBL 225 S CAPE HAT 0413 71 72 100/ 14/ 16 1018.9 6/ 7 3/ 7 41 SE CHARLESTON 0500 67 71 50/ 19/ 23 1016.7 7/ 7 3/13 $$

USA.gov is the U.S. government's official web portal to all federal, state and local government web resources and services.